Data for 03/23/2018

Time Sea-Level Adjusted Pressure Absolute Pressure Temperature Relative Humidity Dew Point   
(mb) (inHg) (mb) (inHg) (C) (F) (%) (C) (F)
00:05 1009 29.8 838 24.75 5.1 41.2 90 3.6 38.4
00:10 1009 29.8 838 24.75 5.1 41.1 89 3.5 38.2
00:15 1009 29.8 839 24.78 5 41.1 89 3.4 38.1
00:20 1009 29.8 839 24.78 5 41 88 3.2 37.8
00:25 1009 29.8 839 24.78 5 41 88 3.2 37.7
00:30 1009 29.8 839 24.78 5 41.1 88 3.3 37.9
00:35 1009 29.8 839 24.78 5 41 88 3.2 37.8
00:40 1009 29.8 839 24.78 5 41.1 88 3.2 37.8
00:45 1009 29.8 839 24.78 4.8 40.7 89 3.2 37.7
00:50 1009 29.8 839 24.78 4.6 40.3 90 3.1 37.5
00:55 1010 29.83 839 24.78 4.1 39.5 90 2.7 36.8
01:00 1010 29.83 839 24.78 3.9 39 91 2.5 36.5
01:05 1010 29.83 839 24.78 3.8 38.9 91 2.5 36.4
01:10 1010 29.83 839 24.78 3.9 39 91 2.5 36.5
01:15 1009 29.8 839 24.78 3.9 39.1 91 2.6 36.6
01:20 1009 29.8 839 24.78 4 39.2 91 2.7 36.8
01:25 1009 29.8 838 24.75 4.1 39.4 90 2.6 36.7
01:30 1009 29.8 838 24.75 4.2 39.5 90 2.6 36.7
01:35 1009 29.8 838 24.75 4.2 39.5 90 2.6 36.7
01:40 1009 29.8 838 24.75 4.1 39.4 89 2.5 36.4
01:45 1009 29.8 838 24.75 3.8 38.8 90 2.3 36.1
01:50 1009 29.8 838 24.75 3.6 38.5 91 2.3 36.1
01:55 1009 29.8 838 24.75 3.7 38.7 91 2.4 36.3
02:00 1009 29.8 839 24.78 3.8 38.8 91 2.4 36.3
02:05 1010 29.83 839 24.78 3.7 38.7 91 2.4 36.2
02:10 1009 29.8 839 24.78 3.7 38.7 91 2.4 36.2
02:15 1009 29.8 839 24.78 3.7 38.6 91 2.3 36.1
02:20 1009 29.8 839 24.78 3.6 38.5 91 2.2 36
02:25 1009 29.8 838 24.75 3.7 38.7 90 2.3 36.1
02:30 1009 29.8 838 24.75 3.8 38.8 90 2.3 36.1
02:35 1009 29.8 838 24.75 3.8 38.8 90 2.2 36
02:40 1009 29.8 838 24.75 3.8 38.9 89 2.2 36
02:45 1009 29.8 838 24.75 3.9 39.1 89 2.2 36
02:50 1009 29.8 838 24.75 4.1 39.4 86 2.1 35.7
02:55 1009 29.8 838 24.75 4.4 39.9 85 2.1 35.7
03:00 1009 29.8 838 24.75 4.4 39.9 83 1.8 35.2
03:05 1009 29.8 838 24.75 4.5 40.1 84 2 35.6
03:10 1009 29.8 838 24.75 4.2 39.6 86 2.1 35.7
03:15 1009 29.8 838 24.75 4 39.2 87 2 35.5
03:20 1009 29.8 838 24.75 4 39.1 87 2 35.5
03:25 1009 29.8 838 24.75 4 39.2 86 1.9 35.4
03:30 1009 29.8 838 24.75 4.2 39.6 85 1.9 35.4
03:35 1009 29.8 838 24.75 4.4 39.9 84 1.8 35.3
03:40 1009 29.8 838 24.75 4.4 40 83 1.9 35.4
03:45 1009 29.8 838 24.75 4.4 40 84 1.9 35.5
03:50 1009 29.8 838 24.75 4 39.3 87 2 35.6
03:55 1009 29.8 838 24.75 3.7 38.7 87 1.8 35.2
04:00 1009 29.8 838 24.75 3.7 38.7 85 1.4 34.6
04:05 1009 29.8 839 24.78 4.1 39.5 81 1.2 34.2
04:10 1009 29.8 839 24.78 4.3 39.8 81 1.4 34.5
04:15 1010 29.83 839 24.78 4.5 40.2 76 0.7 33.3
04:20 1010 29.83 839 24.78 4.9 40.7 78 1.3 34.3
04:25 1010 29.83 839 24.78 4.8 40.6 79 1.5 34.6
04:30 1010 29.83 839 24.78 4.7 40.4 81 1.7 35.1
04:35 1010 29.83 839 24.78 4.4 40 77 0.8 33.4
04:40 1010 29.83 839 24.78 4.7 40.5 74 0.4 32.7
04:45 1010 29.83 839 24.78 4.9 40.9 73 0.5 32.9
04:50 1010 29.83 839 24.78 4.9 40.9 73 0.5 33
04:55 1010 29.83 839 24.78 4.8 40.6 75 0.8 33.4
05:00 1010 29.83 840 24.81 4.6 40.3 78 1.1 33.9
05:05 1010 29.83 840 24.81 4.3 39.7 79 1.1 33.9
05:10 1010 29.83 840 24.81 4.1 39.3 81 1.2 34.1
05:15 1010 29.83 840 24.81 3.7 38.6 85 1.4 34.6
05:20 1010 29.83 840 24.81 3.1 37.6 88 1.3 34.4
05:25 1011 29.85 840 24.81 3 37.3 90 1.5 34.6
05:30 1011 29.85 840 24.81 3.1 37.6 89 1.5 34.8
05:35 1011 29.85 840 24.81 3.3 37.9 89 1.6 34.8
05:40 1011 29.85 840 24.81 3.5 38.2 87 1.5 34.8
05:45 1011 29.85 840 24.81 3.5 38.2 87 1.5 34.7
05:50 1011 29.85 840 24.81 3.5 38.2 87 1.5 34.7
05:55 1011 29.85 840 24.81 3.4 38.2 87 1.5 34.7
06:00 1011 29.85 840 24.81 3.4 38.2 87 1.5 34.8
06:05 1011 29.85 840 24.81 3.4 38.2 87 1.5 34.7
06:10 1011 29.85 840 24.81 3.3 37.9 88 1.5 34.7
06:15 1011 29.85 840 24.81 3.2 37.8 88 1.4 34.5
06:20 1011 29.85 840 24.81 3 37.5 88 1.2 34.2
06:25 1011 29.85 840 24.81 3 37.4 88 1.2 34.2
06:30 1011 29.85 840 24.81 3.1 37.6 88 1.3 34.3
06:35 1011 29.85 840 24.81 3.2 37.7 87 1.2 34.2
06:40 1011 29.85 840 24.81 3.2 37.7 87 1.2 34.1
06:45 1011 29.85 840 24.81 3.1 37.6 86 1 33.8
06:50 1011 29.85 841 24.83 3.2 37.7 85 0.9 33.6
06:55 1011 29.85 841 24.83 3.3 38 84 0.8 33.4
07:00 1011 29.85 841 24.83 3.3 38 83 0.7 33.2
07:05 1011 29.85 841 24.83 3.3 37.9 83 0.7 33.2
07:10 1012 29.88 841 24.83 3.3 37.9 82 0.6 33
07:15 1012 29.88 841 24.83 3.4 38.1 81 0.5 32.8
07:20 1012 29.88 841 24.83 3.4 38.1 81 0.4 32.7
07:25 1012 29.88 841 24.83 3.4 38.2 81 0.5 32.8
07:30 1012 29.88 841 24.83 3.4 38.2 81 0.5 32.9
07:35 1012 29.88 841 24.83 3.7 38.6 81 0.6 33.1
07:40 1012 29.88 841 24.83 3.9 39 79 0.6 33.1
07:45 1012 29.88 841 24.83 4.2 39.5 78 0.7 33.2
07:50 1012 29.88 841 24.83 4.4 39.9 77 0.7 33.3
07:55 1012 29.88 841 24.83 4.6 40.3 77 0.9 33.7
08:00 1012 29.88 841 24.83 4.8 40.7 76 1 33.8
08:05 1012 29.88 841 24.83 5.1 41.2 72 0.4 32.8
08:10 1012 29.88 841 24.83 5.6 42.1 72 1 33.8
08:15 1012 29.88 841 24.83 5.4 41.7 70 0.4 32.8
08:20 1012 29.88 841 24.83 4.7 40.5 75 0.7 33.3
08:25 1012 29.88 841 24.83 4.2 39.6 76 0.4 32.6
08:30 1012 29.88 841 24.83 3.9 39.1 77 0.3 32.6
08:35 1012 29.88 841 24.83 3.6 38.4 79 0.2 32.3
08:40 1012 29.88 841 24.83 3.7 38.6 75 -0.3 31.4
08:45 1012 29.88 841 24.83 4.2 39.6 72 -0.3 31.5
08:50 1012 29.88 841 24.83 4.8 40.6 72 0.2 32.3
08:55 1012 29.88 841 24.83 5.6 42.1 66 -0.2 31.6
09:00 1012 29.88 841 24.83 5.6 42.1 70 0.5 33
09:05 1012 29.88 841 24.83 6.6 43.8 63 0.1 32.2
09:10 1012 29.88 842 24.86 6.9 44.3 63 0.4 32.6
09:15 1012 29.88 842 24.86 6.9 44.4 60 -0.4 31.3
09:20 1012 29.88 842 24.86 6.6 43.8 60 -0.7 30.8
09:25 1012 29.88 842 24.86 6.2 43.2 62 -0.5 31.1
09:30 1012 29.88 842 24.86 6.1 43 61 -0.8 30.5
09:35 1012 29.88 842 24.86 6.1 42.9 62 -0.6 31
09:40 1012 29.88 842 24.86 6.7 44 59 -0.8 30.5
09:45 1012 29.88 842 24.86 7.4 45.4 55 -1 30.2
09:50 1012 29.88 842 24.86 8 46.4 54 -0.7 30.8
09:55 1012 29.88 842 24.86 8 46.4 54 -0.7 30.8
10:00 1012 29.88 842 24.86 8.2 46.8 54 -0.4 31.3
10:05 1012 29.88 842 24.86 8.9 48.1 50 -0.9 30.5
10:10 1012 29.88 842 24.86 9.4 48.9 50 -0.4 31.3
10:15 1012 29.88 842 24.86 9.5 49 50 -0.4 31.3
10:20 1012 29.88 841 24.83 9.1 48.5 48 -1.2 29.8
10:25 1012 29.88 841 24.83 9.2 48.5 48 -1.2 29.9
10:30 1012 29.88 841 24.83 8.6 47.4 48 -1.7 29
10:35 1012 29.88 841 24.83 8.4 47 48 -1.9 28.6
10:40 1012 29.88 841 24.83 9.1 48.3 43 -2.9 26.8
10:45 1012 29.88 841 24.83 8.9 48 47 -1.9 28.6
10:50 1012 29.88 842 24.86 9.1 48.4 48 -1.3 29.7
10:55 1012 29.88 842 24.86 8.3 47 49 -1.8 28.8
11:00 1012 29.88 842 24.86 8.5 47.3 50 -1.4 29.6
11:05 1012 29.88 842 24.86 9.2 48.5 47 -1.6 29.2
11:10 1013 29.91 842 24.86 9.1 48.3 47 -1.5 29.2
11:15 1013 29.91 842 24.86 9.8 49.7 46 -1.3 29.7
11:20 1013 29.91 842 24.86 9.6 49.3 45 -1.6 29.1
11:25 1012 29.88 842 24.86 9.4 48.9 45 -1.9 28.6
11:30 1012 29.88 842 24.86 8.4 47.1 45 -3 26.6
11:35 1012 29.88 842 24.86 9.2 48.6 45 -2 28.5
11:40 1012 29.88 842 24.86 9.3 48.7 41 -3.1 26.4
11:45 1012 29.88 842 24.86 8.7 47.7 45 -2.6 27.3
11:50 1012 29.88 842 24.86 9 48.2 46 -2.1 28.3
11:55 1012 29.88 842 24.86 9.3 48.8 45 -1.9 28.5
12:00 1012 29.88 842 24.86 9.6 49.3 40 -3.4 25.9
12:05 1012 29.88 842 24.86 10 49.9 40 -3 26.6
12:10 1012 29.88 842 24.86 9.5 49.2 41 -3 26.5
12:15 1012 29.88 842 24.86 8.8 47.8 43 -3 26.5
12:20 1012 29.88 841 24.83 8.7 47.6 45 -2.4 27.6
12:25 1012 29.88 841 24.83 9.3 48.8 45 -2.1 28.3
12:30 1012 29.88 841 24.83 9.8 49.6 43 -2.2 28.1
12:35 1012 29.88 841 24.83 10.5 50.8 41 -2.2 28.1
12:40 1012 29.88 841 24.83 9.8 49.6 42 -2.4 27.7
12:45 1012 29.88 841 24.83 10.3 50.5 40 -2.8 27
12:50 1012 29.88 841 24.83 10.4 50.6 41 -2.2 28.1
12:55 1012 29.88 841 24.83 10.6 51.1 43 -1.4 29.4
13:00 1012 29.88 841 24.83 10.4 50.8 40 -2.6 27.3
13:05 1012 29.88 841 24.83 10.8 51.4 40 -2.4 27.7
13:10 1012 29.88 841 24.83 10.9 51.6 40 -2.3 27.9
13:15 1012 29.88 841 24.83 11 51.9 43 -1.1 29.9
13:20 1012 29.88 841 24.83 10.7 51.2 40 -2.3 27.8
13:25 1012 29.88 841 24.83 11.3 52.4 38 -2.3 27.8
13:30 1012 29.88 841 24.83 11.7 53.1 37 -2.4 27.6
13:35 1012 29.88 841 24.83 11.8 53.3 36 -2.7 27.1
13:40 1012 29.88 841 24.83 11.8 53.2 37 -2.5 27.5
13:45 1012 29.88 841 24.83 11 51.8 41 -1.6 29.1
13:50 1012 29.88 841 24.83 10.5 50.9 41 -2.3 27.9
13:55 1012 29.88 841 24.83 10.5 50.9 40 -2.4 27.6
14:00 1012 29.88 841 24.83 10.3 50.5 40 -2.7 27.2
14:05 1012 29.88 841 24.83 10.4 50.8 41 -2.2 28.1
14:10 1012 29.88 841 24.83 11.2 52.1 37 -3 26.6
14:15 1012 29.88 841 24.83 11.8 53.2 37 -2.3 27.9
14:20 1012 29.88 841 24.83 10.4 50.7 40 -2.5 27.6
14:25 1012 29.88 841 24.83 10.6 51.1 37 -3.3 26
14:30 1012 29.88 841 24.83 10.9 51.7 38 -2.7 27.1
14:35 1012 29.88 841 24.83 11.3 52.4 35 -3.5 25.6
14:40 1012 29.88 841 24.83 12 53.6 34 -3.4 26
14:45 1012 29.88 841 24.83 11.3 52.4 38 -2.3 27.8
14:50 1012 29.88 841 24.83 10.9 51.6 41 -1.7 29
14:55 1012 29.88 841 24.83 10.5 50.9 42 -1.9 28.5
15:00 1012 29.88 841 24.83 10.6 51.2 41 -2.1 28.3
15:05 1012 29.88 841 24.83 10.1 50.3 43 -1.9 28.6
15:10 1012 29.88 841 24.83 10.4 50.8 39 -2.9 26.8
15:15 1012 29.88 841 24.83 11.3 52.3 40 -1.7 29
15:20 1012 29.88 841 24.83 10.7 51.3 41 -2.1 28.2
15:25 1012 29.88 841 24.83 11.2 52.1 39 -2.2 28
15:30 1012 29.88 841 24.83 10.7 51.2 39 -2.7 27.2
15:35 1012 29.88 841 24.83 11 51.8 36 -3.3 26
15:40 1012 29.88 841 24.83 11.1 52 35 -3.9 24.9
15:45 1012 29.88 841 24.83 11.1 51.9 35 -3.9 25.1
15:50 1012 29.88 841 24.83 11.6 52.9 34 -3.5 25.7
15:55 1012 29.88 841 24.83 11.3 52.4 35 -3.7 25.3
16:00 1012 29.88 841 24.83 10.9 51.6 36 -3.6 25.6
16:05 1012 29.88 841 24.83 10.3 50.5 36 -4.1 24.7
16:10 1012 29.88 841 24.83 10.6 51.1 35 -4.3 24.2
16:15 1012 29.88 841 24.83 11.2 52.1 34 -4 24.7
16:20 1012 29.88 841 24.83 10.9 51.6 36 -3.6 25.5
16:25 1012 29.88 841 24.83 10.3 50.6 30 -6.4 20.5
16:30 1012 29.88 841 24.83 11.3 52.4 27 -6.8 19.8
16:35 1012 29.88 841 24.83 11 51.9 26 -7.5 18.5
16:40 1012 29.88 841 24.83 10.6 51 23 -9.6 14.7
16:45 1012 29.88 841 24.83 10.6 51.1 22 -10.2 13.6
16:50 1012 29.88 841 24.83 10.5 51 24 -9.4 15
16:55 1012 29.88 841 24.83 10.1 50.1 26 -8.5 16.6
17:00 1012 29.88 841 24.83 10 50.1 26 -8.5 16.7
17:05 1012 29.88 841 24.83 9.7 49.4 26 -8.7 16.4
17:10 1012 29.88 841 24.83 9.6 49.3 26 -9.2 15.5
17:15 1012 29.88 841 24.83 9.7 49.4 25 -9.7 14.5
17:20 1012 29.88 841 24.83 9.7 49.5 24 -10 14
17:25 1012 29.88 841 24.83 9.8 49.7 24 -9.6 14.7
17:30 1012 29.88 841 24.83 10 50 25 -9.2 15.5
17:35 1012 29.88 841 24.83 9.9 49.7 26 -8.9 16
17:40 1012 29.88 842 24.86 9.4 48.9 25 -9.9 14.2
17:45 1012 29.88 842 24.86 9.3 48.7 23 -10.6 12.9
17:50 1012 29.88 842 24.86 9.2 48.6 23 -10.6 12.9
17:55 1012 29.88 842 24.86 9.3 48.8 22 -11.3 11.7
18:00 1013 29.91 842 24.86 9.3 48.7 24 -10.2 13.7
18:05 1013 29.91 842 24.86 9.1 48.3 24 -10.2 13.6
18:10 1013 29.91 842 24.86 9.2 48.5 25 -10.1 13.9
18:15 1013 29.91 842 24.86 9 48.2 26 -9.7 14.5
18:20 1013 29.91 842 24.86 8.6 47.5 28 -9 15.8
18:25 1013 29.91 842 24.86 8.4 47.2 28 -9.2 15.4
18:30 1013 29.91 842 24.86 8.6 47.5 27 -9.4 15.1
18:35 1013 29.91 842 24.86 8.5 47.3 28 -9.2 15.4
18:40 1013 29.91 842 24.86 8.2 46.8 30 -8.5 16.8
18:45 1013 29.91 842 24.86 8 46.5 27 -9.7 14.6
18:50 1013 29.91 842 24.86 7.9 46.3 29 -8.9 16
18:55 1013 29.91 842 24.86 7.7 45.9 28 -9.6 14.7
19:00 1013 29.91 842 24.86 7.9 46.2 28 -9.3 15.3
19:05 1013 29.91 842 24.86 7.7 45.8 29 -9.5 15
19:10 1013 29.91 842 24.86 7.6 45.6 29 -9.4 15.1
19:15 1013 29.91 842 24.86 7.4 45.3 30 -9.2 15.5
19:20 1013 29.91 842 24.86 7.3 45.1 31 -8.6 16.6
19:25 1013 29.91 842 24.86 7.2 44.9 31 -8.8 16.2
19:30 1013 29.91 842 24.86 7.3 45.1 29 -9.5 14.9
19:35 1013 29.91 842 24.86 7.3 45.1 28 -9.9 14.2
19:40 1013 29.91 842 24.86 7.5 45.4 30 -9.2 15.5
19:45 1013 29.91 842 24.86 7.4 45.2 28 -9.8 14.4
19:50 1013 29.91 842 24.86 7.4 45.3 30 -9.3 15.3
19:55 1013 29.91 842 24.86 7.1 44.8 31 -8.7 16.3
20:00 1013 29.91 842 24.86 7 44.5 31 -9.2 15.4
20:05 1013 29.91 842 24.86 6.9 44.5 31 -9.2 15.5
20:10 1013 29.91 842 24.86 6.9 44.4 32 -8.8 16.2
20:15 1013 29.91 842 24.86 6.7 44.1 32 -9 15.8
20:20 1013 29.91 842 24.86 6.6 43.9 31 -9.1 15.5
20:25 1013 29.91 842 24.86 6.7 44.1 30 -9.7 14.6
20:30 1013 29.91 842 24.86 6.9 44.5 31 -8.9 15.9
20:35 1013 29.91 842 24.86 6.8 44.3 32 -8.9 16
20:40 1013 29.91 842 24.86 6.7 44.1 31 -9.1 15.6
20:45 1013 29.91 842 24.86 6.8 44.3 31 -9.2 15.4
20:50 1013 29.91 842 24.86 6.8 44.2 31 -9.2 15.5
20:55 1013 29.91 842 24.86 6.9 44.3 31 -9.2 15.4
21:00 1013 29.91 842 24.86 6.8 44.2 31 -9.3 15.2
21:05 1013 29.91 842 24.86 6.8 44.3 31 -9.2 15.4
21:10 1013 29.91 842 24.86 7 44.5 29 -9.8 14.4
21:15 1013 29.91 842 24.86 6.9 44.5 31 -9 15.7
21:20 1013 29.91 842 24.86 6.8 44.3 30 -9.6 14.8
21:25 1013 29.91 842 24.86 6.8 44.3 30 -9.4 15.1
21:30 1013 29.91 842 24.86 6.9 44.4 31 -9.3 15.3
21:35 1013 29.91 842 24.86 6.9 44.4 30 -9.4 15
21:40 1013 29.91 842 24.86 6.8 44.2 31 -9.1 15.6
21:45 1013 29.91 842 24.86 6.9 44.4 29 -9.8 14.4
21:50 1013 29.91 842 24.86 7 44.6 30 -9.6 14.8
21:55 1013 29.91 842 24.86 6.9 44.4 30 -9.5 14.9
22:00 1013 29.91 842 24.86 6.7 44 31 -9.5 14.9
22:05 1013 29.91 842 24.86 6.4 43.6 32 -9 15.8
22:10 1013 29.91 842 24.86 6.1 43 33 -8.9 16
22:15 1013 29.91 842 24.86 6 42.8 33 -9 15.7
22:20 1013 29.91 842 24.86 6.1 43 32 -9.4 15
22:25 1013 29.91 842 24.86 6.3 43.3 31 -9.5 14.9
22:30 1013 29.91 842 24.86 6.3 43.3 32 -9.3 15.2
22:35 1013 29.91 842 24.86 6.1 43 32 -9.4 15
22:40 1013 29.91 842 24.86 6 42.9 32 -9.5 14.9
22:45 1013 29.91 842 24.86 6.1 43.1 32 -9.5 14.9
22:50 1013 29.91 842 24.86 6.1 42.9 31 -9.7 14.6
22:55 1013 29.91 842 24.86 6 42.9 31 -9.8 14.3
23:00 1013 29.91 842 24.86 6 42.9 31 -9.8 14.4
23:05 1013 29.91 842 24.86 5.9 42.7 30 -10.2 13.7
23:10 1013 29.91 842 24.86 6 42.7 31 -10 14
23:15 1013 29.91 842 24.86 5.9 42.7 31 -9.9 14.2
23:20 1013 29.91 842 24.86 5.8 42.5 31 -10 14.1
23:25 1013 29.91 842 24.86 5.5 41.9 33 -9.7 14.5
23:30 1013 29.91 842 24.86 5.4 41.7 35 -8.8 16.1
23:35 1013 29.91 842 24.86 5 41 36 -8.7 16.3
23:40 1013 29.91 842 24.86 4.7 40.5 37 -8.9 16
23:45 1013 29.91 842 24.86 4.7 40.5 37 -8.7 16.3
23:50 1013 29.91 842 24.86 4.6 40.2 36 -9.2 15.5
23:55 1013 29.91 842 24.86 4.6 40.2 36 -9.1 15.5
24:00 1013 29.91 842 24.86 4.5 40.1 35 -9.6 14.8